Regional Weather Roundup
Issued by NWS

Current Version | Previous Version | Text Only | Print | Product List | Glossary On
Versions: 1 2 3 4 5 6 7 8 9 10 11 12 13 14 15 16 17 18 19 20 21 22 23 24 25 26 27 28 29 30 31 32 33 34 35 36 37 38 39 40 41 42 43 44 45 46 47 48 49 50
000
ASCA42 TJSJ 301111
RWRPR
PUERTO RICO/U.S. VIRGIN ISLANDS HOURLY WEATHER ROUNDUP
NATIONAL WEATHER SERVICE SAN JUAN PR
700 AM AST WED JUL 30 2014

PRZ001-004-301200-
PUERTO RICO

CITY           SKY/WX    TMP DP  RH WIND       PRES   REMARKS
SAN JUAN LMM   MOSUNNY   81  73  78 CALM      30.04R
MAYAGUEZ       MOSUNNY   75  68  78 SE5       30.02
AGUADILLA      SUNNY     73  70  88 E3        30.05
CEIBA          LGT RAIN  77  73  88 CALM      30.06R
$$

PRZ006-007-301200-
U.S. VIRGIN ISLANDS

CITY           SKY/WX    TMP DP  RH WIND       PRES   REMARKS
CHRISTIANSTED  MOSUNNY   79  72  78 NE5       30.04R
$$

HOURLY WEATHER ROUNDUP FOR THE NEWS MEDIA

CITY           SKY/WX    TMP DP  RH WIND       PRES   REMARKS
MIAMI          MOCLDY    81  76  84 SW5       29.99R
ORLANDO        CLEAR     76  74  93 W3        29.96R
NEW YORK       MOSUNNY   65  53  65 N6        30.02R
NEWARK         MOSUNNY   65  52  62 NW7       30.01R
CHICAGO        MOCLDY    62  54  74 W6        30.02R
HARTFORD       SUNNY     57  56  96 CALM      29.99R
BOSTON         PTSUNNY   66  57  72 CALM      30.00R
DALLAS         CLOUDY    77  66  68 SE10      30.04R
PHILADELPHIA   PTSUNNY   63  52  67 CALM      30.03R



USA.gov is the U.S. government's official web portal to all federal, state and local government web resources and services.